AirNav   Pilot Hours Calculator
 
 855 users online  

1S4 Seiling Airport
Seiling, Oklahoma, USA

GOING TO SEILING?


FAA INFORMATION EFFECTIVE 11 AUGUST 2022

Location

FAA Identifier: 1S4
Lat/Long: 36-09-19.3000N 098-56-01.3000W
36-09.321667N 098-56.021667W
36.1553611,-98.9336944
(estimated)
Elevation: 1746 ft. / 532 m (estimated)
Variation: 08E (1985)
Time zone: UTC -5 (UTC -6 during Standard Time)
Zip code: 73663

Airport Operations

Airport use: Open to the public
Activation date: 01/1962
Control tower: no
ARTCC: KANSAS CITY CENTER
FSS: MC ALESTER FLIGHT SERVICE STATION
NOTAMs facility: MLC (NOTAM-D service available)
Attendance: UNATNDD
Wind indicator: yes
Segmented circle: no
Lights: SS-SR

Airport Communications

CTAF: 122.9

Airport Services

Airframe service: NONE
Powerplant service: NONE
Bottled oxygen: NONE
Bulk oxygen: NONE

Runway Information

Runway 17/35

Dimensions: 2435 x 38 ft. / 742 x 12 m
Surface: asphalt, in good condition
Weight bearing capacity: 
Single wheel: LESS THAN 4000 LBS.
Runway edge lights: low intensity
NSTD DUE TO SPACING & HGT.
Runway edge markings: EDGE MKD ONLY.
RUNWAY 17  RUNWAY 35
Latitude: 36-09.521542N36-09.120157N
Longitude: 098-56.017765W098-56.024577W
Elevation: 1746.0 ft.1736.0 ft.
Traffic pattern: leftleft
Runway heading: 173 magnetic, 181 true353 magnetic, 001 true
Markings: NSTD, in good conditionNSTD, in good condition
Obstructions: none
15 FT ROAD 35 FT FM THR; 46 FT TREE 100 FT L OF CNTRLN AT THR.
32 ft. tree, 220 ft. from runway, 30 ft. left of centerline
15 FT ROAD 110 FT FM THR; 20 FT PLINE 140 FT FM THR 115 FT R & L OF CNTRLN; 37 FT TREE 120 FT R OF CNTRLN AT THR.

Airport Ownership and Management from official FAA records

Ownership: Publicly-owned
Owner: TOWN OF SEILING
315 N. MAIN ST.
SEILING, OK 73663
Phone 580-922-4460
Manager: SKYLER SANDER
PO BOX 1043
SEILING, OK 73663
Phone 580-922-4460

Airport Operational Statistics

Aircraft based on the field: 2
Single engine airplanes: 2
    
Aircraft operations: 20/year *
100% transient general aviation
* for 12-month period ending 20 April 2021

Additional Remarks

496 FT UNLGTD TWR 18 NM S.
FOR CD CTC KANSAS CITY ARTCC AT 913-254-8508.

Instrument Procedures

There are no published instrument procedures at 1S4.

Some nearby airports with instrument procedures:

KMDF - Mooreland Municipal Airport (23 nm NW)
6K4 - Fairview Municipal Airport (24 nm E)
1O4 - Thomas Municipal Airport (27 nm S)
KJWG - Watonga Regional Airport (30 nm SE)
KWWR - West Woodward Airport (33 nm NW)
 
Loc | Ops | Rwys | IFR | FBO | Links
Com | Nav | Svcs | Stats | Notes

AirBoss

 
Area around 1S4 (Seiling Airport)
 
Road maps at: MapQuest Bing Google
 
Aerial photo
No photo
 
Sectional chart

 
Airport distance calculator
Flying to Seiling Airport? Find the distance to fly.

From to 1S4

Sunrise and sunset
Times for 13-Aug-2022
 Local
(UTC-5)
 Zulu
(UTC)
Morning civil twilight06:2611:26
Sunrise06:5311:53
Sunset20:2801:28
Evening civil twilight20:5501:55

Current date and time
Zulu (UTC)  14-Aug-2022 02:44:04
Local (UTC-5)  13-Aug-2022 21:44:04
 
METAR
KJWG 
30nm SE 
140215Z AUTO 14006KT 10SM CLR 31/16 A3003 RMK AO2 T03120157
KCLK 
37nm S 
140215Z AUTO 13006KT 10SM CLR 31/15 A3001 RMK AO2
KWWR 
39nm NW 
140215Z AUTO 15007KT 10SM CLR 28/13 A3005 RMK AO2
KOJA 
39nm S 
140215Z AUTO 15006KT 10SM CLR 30/18 A3001 RMK AO2 T03020182
KAVK 
39nm N 
140225Z AUTO 15008KT 10SM CLR 31/15 A2998 RMK AO2
KGAG 
41nm W 
140153Z AUTO 15009KT 10SM CLR 29/14 A3001 RMK AO2 SLP131 T02940139 $
KELK 
49nm SW 
140215Z AUTO 14004KT 10SM CLR 31/16 A3002 RMK AO2 SLP451 T03080160
TAF
KWWR 
39nm NW 
132324Z 1400/1424 17010KT P6SM SKC FM141200 20012KT P6SM FEW080
NOTAMs
Click for the latest NOTAMs
NOTAMs are issued by the DoD/FAA and will open in a separate window not controlled by AirNav.

 

 
 

Would you like to see your business listed on this page?

 If your business provides an interesting product or service to pilots, flight crews, aircraft, or users of the Seiling Airport, you should consider listing it here.  To start the listing process, click on the button below
 
Add a business
 

Other Pages about Seiling Airport

Update a link
 
Copyright © AirNav, LLC. All rights reserved. Privacy Policy  Contact